FIN4EV EFHK-LCLK

Flight info

Callsign FIN4EV
Flight time N/A
Altitude 36000
Route KOIVU Y123 LARTI DCT LUTAL DCT BERIL/N0453F350 DCT BOKSU/N0456F360 DCT TOXAR DCT ROBTU/N0458F370 DCT KENIN DCT ARGES DCT RIXEN UG1 IST UT35 AYT UA16 TOMBI M855 DASNI M601 BONEK
Aircraft A320/M-SDE3FGHIRWY/LB1

Departure

Time 2026-04-22 07:15
Airport Helsinki Vantaa Airport (EFHK)

Arrival

Time N/A
Airport Larnaca International Airport (LCLK)
Time Latitude Longitude Altitude Speed Heading
2026-04-22 06:39 60.31170 24.96082 162 ft 0 kts 137°
2026-04-22 07:06 60.31183 24.96059 161 ft 4 kts 137°
2026-04-22 07:06 60.31202 24.96024 161 ft 4 kts 139°
2026-04-22 07:06 60.31223 24.95997 161 ft 4 kts 173°
2026-04-22 07:06 60.31243 24.96006 161 ft 2 kts 227°
2026-04-22 07:07 60.31257 24.96037 161 ft 1 kts 227°
2026-04-22 07:07 60.31257 24.96038 161 ft 0 kts 227°
2026-04-22 07:09 60.31247 24.96015 161 ft 5 kts 227°
2026-04-22 07:09 60.31220 24.95910 161 ft 12 kts 277°
2026-04-22 07:09 60.31222 24.95728 161 ft 15 kts 228°
2026-04-22 07:10 60.31164 24.95561 161 ft 15 kts 270°
2026-04-22 07:10 60.31227 24.95400 161 ft 15 kts 317°
2026-04-22 07:10 60.31309 24.95251 161 ft 16 kts 318°
2026-04-22 07:10 60.31394 24.95090 161 ft 17 kts 315°
2026-04-22 07:11 60.31465 24.94957 161 ft 9 kts 355°
2026-04-22 07:11 60.31509 24.95035 161 ft 8 kts 47°
2026-04-22 07:11 60.31554 24.95135 161 ft 13 kts 47°
2026-04-22 07:11 60.31613 24.95264 161 ft 12 kts 47°
2026-04-22 07:12 60.31680 24.95412 161 ft 17 kts 47°
2026-04-22 07:12 60.31769 24.95607 161 ft 21 kts 47°
2026-04-22 07:12 60.31879 24.95849 161 ft 25 kts 48°
2026-04-22 07:12 60.32006 24.96131 161 ft 29 kts 47°
2026-04-22 07:13 60.32147 24.96448 161 ft 31 kts 50°
2026-04-22 07:13 60.32281 24.96742 161 ft 16 kts 50°
2026-04-22 07:13 60.32365 24.96789 161 ft 13 kts 335°
2026-04-22 07:13 60.32449 24.96705 163 ft 13 kts 333°
2026-04-22 07:14 60.32478 24.96594 162 ft 5 kts 228°
2026-04-22 07:14 60.32445 24.96530 161 ft 14 kts 226°
2026-04-22 07:14 60.32230 24.96056 164 ft 81 kts 227°
2026-04-22 07:14 60.31709 24.94912 163 ft 137 kts 228°
2026-04-22 07:15 60.30991 24.93354 482 ft 154 kts 231°
2026-04-22 07:15 60.30209 24.91854 1151 ft 158 kts 224°
2026-04-22 07:15 60.29218 24.90692 1689 ft 175 kts 217°
2026-04-22 07:15 60.28098 24.89494 2013 ft 195 kts 215°
2026-04-22 07:16 60.26846 24.88155 2412 ft 213 kts 216°
2026-04-22 07:16 60.25474 24.86629 2742 ft 238 kts 217°
2026-04-22 07:16 60.23980 24.84963 3368 ft 250 kts 216°
2026-04-22 07:16 60.22345 24.83596 4169 ft 260 kts 201°
2026-04-22 07:17 60.20558 24.82728 4982 ft 267 kts 197°
2026-04-22 07:17 60.18724 24.81947 5789 ft 270 kts 196°
2026-04-22 07:17 60.16884 24.81184 6688 ft 271 kts 196°
2026-04-22 07:17 60.15660 24.80666 7228 ft 272 kts 196°
2026-04-22 07:18 60.13789 24.79853 7881 ft 284 kts 197°
2026-04-22 07:18 60.11810 24.78966 8414 ft 296 kts 197°
2026-04-22 07:18 60.09780 24.78049 9191 ft 301 kts 197°
2026-04-22 07:18 60.07723 24.77117 9976 ft 304 kts 197°
2026-04-22 07:19 60.05613 24.76153 10391 ft 322 kts 197°
2026-04-22 07:19 60.03345 24.75102 10594 ft 346 kts 197°
2026-04-22 07:19 60.00953 24.73999 11052 ft 358 kts 197°
2026-04-22 07:19 59.98506 24.72879 11694 ft 364 kts 197°
2026-04-22 07:20 59.96052 24.71765 12362 ft 368 kts 197°
2026-04-22 07:20 59.93532 24.70629 13032 ft 373 kts 197°
2026-04-22 07:20 59.90981 24.69476 13697 ft 378 kts 197°
2026-04-22 07:20 59.88403 24.68306 14261 ft 383 kts 196°
2026-04-22 07:21 59.85791 24.67118 14852 ft 387 kts 196°
2026-04-22 07:21 59.83147 24.65916 15442 ft 391 kts 196°
2026-04-22 07:21 59.80488 24.64678 16025 ft 395 kts 196°
2026-04-22 07:21 59.77803 24.63407 16601 ft 398 kts 196°
2026-04-22 07:22 59.75096 24.62119 17178 ft 402 kts 196°
2026-04-22 07:22 59.72364 24.60819 17754 ft 406 kts 196°
2026-04-22 07:22 59.69602 24.59510 18314 ft 410 kts 196°
2026-04-22 07:22 59.66800 24.58196 18817 ft 414 kts 195°
2026-04-22 07:23 59.64008 24.56977 19328 ft 417 kts 194°
2026-04-22 07:23 59.61151 24.55835 19844 ft 420 kts 193°
2026-04-22 07:23 59.58270 24.54738 20402 ft 422 kts 191°
2026-04-22 07:23 59.55379 24.53648 20944 ft 425 kts 191°
2026-04-22 07:24 59.52462 24.52538 21453 ft 428 kts 191°
2026-04-22 07:24 59.49530 24.51409 21961 ft 431 kts 191°
2026-04-22 07:24 59.46570 24.50255 22454 ft 434 kts 191°
2026-04-22 07:24 59.43604 24.49090 22934 ft 437 kts 191°
2026-04-22 07:25 59.40647 24.47921 23400 ft 440 kts 191°
2026-04-22 07:25 59.37637 24.46733 23801 ft 443 kts 191°
2026-04-22 07:25 59.34603 24.45541 24155 ft 446 kts 191°
2026-04-22 07:25 59.31546 24.44344 24506 ft 450 kts 191°
2026-04-22 07:26 59.28467 24.43143 24848 ft 453 kts 191°
2026-04-22 07:26 59.25368 24.41942 25191 ft 456 kts 190°
2026-04-22 07:26 59.22235 24.40730 25521 ft 459 kts 190°
2026-04-22 07:26 59.19098 24.39520 25840 ft 462 kts 190°
2026-04-22 07:27 59.15923 24.38301 26160 ft 465 kts 190°
2026-04-22 07:27 59.12739 24.37082 26511 ft 468 kts 190°
2026-04-22 07:27 59.09532 24.35850 26819 ft 471 kts 190°
2026-04-22 07:27 59.06348 24.34625 27121 ft 474 kts 190°
2026-04-22 07:28 58.99837 24.32125 27778 ft 478 kts 189°
2026-04-22 07:28 58.96568 24.30874 28090 ft 480 kts 189°
2026-04-22 07:28 58.93278 24.29626 28380 ft 483 kts 189°
2026-04-22 07:29 58.89966 24.28374 28654 ft 486 kts 189°
2026-04-22 07:29 58.86644 24.27118 28930 ft 488 kts 189°
2026-04-22 07:29 58.83298 24.25851 29190 ft 491 kts 189°
2026-04-22 07:29 58.79969 24.24591 29459 ft 493 kts 189°
2026-04-22 07:30 58.76592 24.23315 29719 ft 495 kts 189°
2026-04-22 07:30 58.73203 24.22035 29974 ft 497 kts 188°
2026-04-22 07:30 58.69796 24.20754 30216 ft 498 kts 188°
2026-04-22 07:30 58.66386 24.19473 30427 ft 500 kts 188°
2026-04-22 07:31 58.62967 24.18191 30613 ft 502 kts 188°
2026-04-22 07:31 58.59530 24.16910 30808 ft 504 kts 188°
2026-04-22 07:31 58.56123 24.15645 31050 ft 504 kts 188°
2026-04-22 07:31 58.52684 24.14372 31312 ft 504 kts 188°
2026-04-22 07:32 58.49225 24.13091 31572 ft 504 kts 188°
2026-04-22 07:32 58.45783 24.11809 31822 ft 504 kts 188°
2026-04-22 07:32 58.42345 24.10532 32176 ft 501 kts 188°
2026-04-22 07:32 58.38907 24.09262 32485 ft 500 kts 188°
2026-04-22 07:33 58.35492 24.08002 32758 ft 500 kts 188°
2026-04-22 07:33 58.32082 24.06744 33047 ft 500 kts 188°
2026-04-22 07:33 58.28665 24.05484 33281 ft 500 kts 187°
2026-04-22 07:33 58.25244 24.04231 33549 ft 499 kts 187°
2026-04-22 07:34 58.21877 24.03007 33807 ft 499 kts 187°
2026-04-22 07:34 58.18463 24.01769 34058 ft 499 kts 187°
2026-04-22 07:34 58.15057 24.00532 34346 ft 497 kts 187°
2026-04-22 07:34 58.11660 23.99296 34638 ft 495 kts 187°
2026-04-22 07:35 58.08278 23.98066 34875 ft 494 kts 187°
2026-04-22 07:35 58.04904 23.96844 35111 ft 494 kts 188°
2026-04-22 07:35 58.01532 23.95626 35371 ft 492 kts 188°
2026-04-22 07:35 57.98175 23.94419 35617 ft 490 kts 188°
2026-04-22 07:36 57.94822 23.93218 35823 ft 490 kts 188°
2026-04-22 07:36 57.91518 23.92034 35994 ft 490 kts 188°
2026-04-22 07:36 57.84848 23.89716 36042 ft 485 kts 187°
2026-04-22 07:37 57.78205 23.87546 36052 ft 484 kts 187°
2026-04-22 07:37 57.71569 23.85409 36045 ft 484 kts 187°
2026-04-22 07:38 57.64929 23.83253 36045 ft 484 kts 187°
2026-04-22 07:38 57.58304 23.81074 36073 ft 483 kts 187°
2026-04-22 07:39 57.51690 23.78902 36058 ft 482 kts 187°
2026-04-22 07:39 57.45082 23.76768 36066 ft 481 kts 187°
2026-04-22 07:40 57.38513 23.74665 36057 ft 481 kts 187°
2026-04-22 07:40 57.31908 23.72538 36069 ft 481 kts 187°
2026-04-22 07:41 57.25321 23.70415 36064 ft 480 kts 187°
2026-04-22 07:41 57.18744 23.68313 36059 ft 480 kts 187°
2026-04-22 07:42 57.12192 23.66238 36059 ft 479 kts 187°
2026-04-22 07:42 57.05619 23.64166 36059 ft 479 kts 187°
2026-04-22 07:43 56.99038 23.62087 36069 ft 479 kts 187°
2026-04-22 07:43 56.92517 23.60027 36066 ft 478 kts 187°
2026-04-22 07:44 56.85954 23.57959 36064 ft 478 kts 187°
2026-04-22 07:44 56.79383 23.55916 36061 ft 478 kts 187°
2026-04-22 07:45 56.72817 23.53882 36069 ft 477 kts 187°
2026-04-22 07:45 56.66282 23.51853 36067 ft 476 kts 187°
2026-04-22 07:46 56.59795 23.49844 36070 ft 476 kts 187°
2026-04-22 07:46 56.53258 23.47814 36076 ft 475 kts 187°
2026-04-22 07:47 56.46736 23.45817 36061 ft 475 kts 187°
2026-04-22 07:47 56.40257 23.43854 36065 ft 475 kts 187°
2026-04-22 07:48 56.33730 23.41967 36069 ft 474 kts 185°
2026-04-22 07:48 56.27184 23.40680 36069 ft 473 kts 182°
2026-04-22 07:49 56.20622 23.39647 36081 ft 473 kts 182°
2026-04-22 07:49 56.14071 23.38525 36084 ft 473 kts 182°
2026-04-22 07:50 56.07519 23.37291 36100 ft 473 kts 183°
2026-04-22 07:50 56.00974 23.36046 36099 ft 473 kts 183°
2026-04-22 07:51 55.94471 23.34835 36108 ft 473 kts 182°
2026-04-22 07:51 55.87930 23.33640 36103 ft 472 kts 182°
2026-04-22 07:52 55.81398 23.32451 36102 ft 472 kts 182°
2026-04-22 07:52 55.74857 23.31259 36093 ft 472 kts 182°
2026-04-22 07:53 55.68324 23.30075 36112 ft 471 kts 182°
2026-04-22 07:53 55.61803 23.28886 36098 ft 471 kts 182°
2026-04-22 07:54 55.55284 23.27697 36097 ft 470 kts 182°
2026-04-22 07:54 55.48811 23.26530 36091 ft 470 kts 182°
2026-04-22 07:55 55.42323 23.25372 36089 ft 470 kts 182°
2026-04-22 07:55 55.35791 23.24206 36101 ft 470 kts 182°
2026-04-22 07:56 55.29274 23.23039 36094 ft 469 kts 182°
2026-04-22 07:56 55.22808 23.21884 36119 ft 469 kts 182°
2026-04-22 07:57 55.16302 23.20731 36110 ft 469 kts 181°
2026-04-22 07:57 55.09802 23.19582 36184 ft 470 kts 181°
2026-04-22 07:58 55.06551 23.19007 36376 ft 470 kts 181°
2026-04-22 07:58 55.03297 23.18434 36552 ft 470 kts 181°
2026-04-22 07:58 55.00046 23.17865 36707 ft 470 kts 182°
2026-04-22 07:58 54.96787 23.17296 36874 ft 470 kts 182°
2026-04-22 07:59 54.93532 23.16726 37043 ft 470 kts 182°
2026-04-22 07:59 54.90299 23.16162 37109 ft 471 kts 182°
2026-04-22 07:59 54.83763 23.15017 37106 ft 471 kts 182°
2026-04-22 08:00 54.77228 23.13879 37109 ft 472 kts 182°
2026-04-22 08:00 54.70725 23.12762 37120 ft 472 kts 182°
2026-04-22 08:01 54.64191 23.11644 37115 ft 471 kts 182°
2026-04-22 08:01 54.57668 23.10516 37132 ft 472 kts 182°
2026-04-22 08:02 54.51133 23.09387 37130 ft 472 kts 182°
2026-04-22 08:02 54.44602 23.08272 37148 ft 472 kts 182°
2026-04-22 08:03 54.38060 23.07145 37136 ft 472 kts 181°
2026-04-22 08:03 54.31521 23.06033 37149 ft 472 kts 182°
2026-04-22 08:04 54.24999 23.04437 37141 ft 475 kts 187°
2026-04-22 08:04 54.18553 23.02216 37140 ft 476 kts 188°
2026-04-22 08:05 54.12065 22.99935 37137 ft 475 kts 187°
2026-04-22 08:05 54.05572 22.97832 37144 ft 475 kts 187°
2026-04-22 08:06 53.99063 22.95839 37136 ft 475 kts 186°
2026-04-22 08:06 53.92560 22.93837 37135 ft 475 kts 187°
2026-04-22 08:07 53.86062 22.91801 37139 ft 475 kts 187°
2026-04-22 08:07 53.79559 22.89746 37137 ft 475 kts 187°
2026-04-22 08:08 53.73102 22.87723 37140 ft 475 kts 187°
2026-04-22 08:08 53.66612 22.85711 36940 ft 473 kts 186°
2026-04-22 08:09 53.63366 22.84708 36783 ft 473 kts 186°
2026-04-22 08:09 53.60158 22.83722 36630 ft 473 kts 186°
2026-04-22 08:09 53.56918 22.82726 36490 ft 472 kts 186°
2026-04-22 08:09 53.53685 22.81731 36342 ft 472 kts 186°
2026-04-22 08:10 53.50448 22.80733 36169 ft 473 kts 186°
2026-04-22 08:10 53.47212 22.79737 36110 ft 472 kts 186°
2026-04-22 08:10 53.40740 22.77749 36129 ft 473 kts 186°
2026-04-22 08:11 53.35340 22.76098 36124 ft 473 kts 186°
2026-04-22 08:11 53.28861 22.74125 36123 ft 473 kts 186°
2026-04-22 08:12 53.22377 22.72143 36125 ft 474 kts 186°
2026-04-22 08:12 53.15886 22.70173 36130 ft 474 kts 186°
2026-04-22 08:13 53.09399 22.68223 36128 ft 474 kts 186°
2026-04-22 08:13 53.02904 22.66268 36148 ft 474 kts 186°
2026-04-22 08:14 52.96462 22.64325 36141 ft 474 kts 186°
2026-04-22 08:14 52.89969 22.62376 36134 ft 474 kts 186°
2026-04-22 08:15 52.83476 22.60439 36135 ft 474 kts 186°
2026-04-22 08:15 52.76981 22.58515 36140 ft 474 kts 186°
2026-04-22 08:16 52.70492 22.56590 36138 ft 474 kts 187°
2026-04-22 08:16 52.64000 22.54677 36139 ft 474 kts 186°
2026-04-22 08:17 52.57503 22.52902 36147 ft 473 kts 184°
2026-04-22 08:17 52.51020 22.51568 36145 ft 472 kts 183°
2026-04-22 08:18 52.44493 22.50342 36140 ft 472 kts 183°
2026-04-22 08:18 52.37969 22.49025 36135 ft 472 kts 184°
2026-04-22 08:19 52.31447 22.47629 36140 ft 472 kts 184°
2026-04-22 08:19 52.24937 22.46250 36139 ft 472 kts 184°
2026-04-22 08:20 52.18424 22.44901 36128 ft 471 kts 184°
2026-04-22 08:20 52.11915 22.43571 36125 ft 471 kts 184°
2026-04-22 08:21 52.05446 22.42242 36135 ft 471 kts 184°
2026-04-22 08:21 51.98942 22.40901 36133 ft 471 kts 184°
2026-04-22 08:22 51.92437 22.39570 36133 ft 471 kts 184°
2026-04-22 08:22 51.85933 22.38245 36137 ft 471 kts 184°
2026-04-22 08:23 51.79426 22.36916 36140 ft 471 kts 185°
2026-04-22 08:23 51.72910 22.35598 36160 ft 471 kts 185°
2026-04-22 08:24 51.66405 22.34277 36157 ft 471 kts 185°
2026-04-22 08:24 51.59944 22.32971 36153 ft 471 kts 185°
2026-04-22 08:25 51.53440 22.31661 36151 ft 470 kts 185°
2026-04-22 08:25 51.46934 22.30356 36148 ft 470 kts 185°
2026-04-22 08:26 51.40484 22.29066 36149 ft 470 kts 185°
2026-04-22 08:26 51.33992 22.27774 36153 ft 470 kts 185°
2026-04-22 08:27 51.27498 22.26482 36157 ft 470 kts 185°
2026-04-22 08:27 51.21000 22.25192 36151 ft 470 kts 185°
2026-04-22 08:28 51.14507 22.23901 36157 ft 470 kts 185°
2026-04-22 08:28 51.08014 22.22619 36167 ft 470 kts 185°
2026-04-22 08:29 51.01557 22.21350 36164 ft 470 kts 185°
2026-04-22 08:29 50.95068 22.20077 36171 ft 470 kts 185°
2026-04-22 08:30 50.88570 22.18811 36180 ft 470 kts 185°
2026-04-22 08:30 50.82074 22.17540 36177 ft 470 kts 185°
2026-04-22 08:31 50.75586 22.16274 36176 ft 469 kts 185°
2026-04-22 08:32 50.65903 22.14399 36166 ft 469 kts 185°
2026-04-22 08:32 50.59416 22.13151 36168 ft 469 kts 185°
2026-04-22 08:33 50.52931 22.11903 36163 ft 469 kts 185°
2026-04-22 08:33 50.46448 22.10659 36163 ft 469 kts 185°
2026-04-22 08:34 50.39967 22.09427 36170 ft 469 kts 185°
2026-04-22 08:34 50.33530 22.08192 36175 ft 469 kts 186°
2026-04-22 08:35 50.27018 22.06945 36174 ft 469 kts 186°
2026-04-22 08:35 50.20581 22.05715 36175 ft 468 kts 185°
2026-04-22 08:36 50.14106 22.04485 36192 ft 468 kts 186°
2026-04-22 08:36 50.07634 22.03272 36186 ft 468 kts 186°
2026-04-22 08:37 50.01164 22.02052 36183 ft 468 kts 186°
2026-04-22 08:37 49.94697 22.00840 36177 ft 468 kts 186°
2026-04-22 08:38 49.88272 21.99634 36162 ft 468 kts 186°
2026-04-22 08:38 49.81802 21.98420 36158 ft 468 kts 186°
2026-04-22 08:39 49.75336 21.97198 36158 ft 468 kts 186°
2026-04-22 08:39 49.68870 21.95995 36159 ft 468 kts 186°
2026-04-22 08:40 49.62402 21.94810 36155 ft 468 kts 186°
2026-04-22 08:40 49.55932 21.93623 36153 ft 468 kts 186°
2026-04-22 08:41 49.49462 21.92427 36150 ft 468 kts 186°
2026-04-22 08:41 49.42989 21.91232 36154 ft 468 kts 186°
2026-04-22 08:42 49.36520 21.90038 36166 ft 468 kts 186°
2026-04-22 08:42 49.30052 21.88859 36157 ft 468 kts 186°
2026-04-22 08:43 49.23585 21.87689 36166 ft 468 kts 186°
2026-04-22 08:43 49.17110 21.86505 36158 ft 468 kts 187°
2026-04-22 08:44 49.10686 21.85336 36158 ft 468 kts 186°
2026-04-22 08:44 49.04223 21.84166 36157 ft 468 kts 187°
2026-04-22 08:45 48.97760 21.82996 36155 ft 468 kts 186°
2026-04-22 08:45 48.91291 21.81863 36155 ft 468 kts 184°
2026-04-22 08:46 48.84815 21.82451 36151 ft 466 kts 171°
2026-04-22 08:46 48.78419 21.83822 36142 ft 467 kts 171°
2026-04-22 08:47 48.71985 21.85193 36140 ft 467 kts 171°
2026-04-22 08:47 48.65555 21.86555 36145 ft 467 kts 172°
2026-04-22 08:48 48.59123 21.87908 36144 ft 466 kts 172°
2026-04-22 08:48 48.52700 21.89269 36139 ft 466 kts 172°
2026-04-22 08:49 48.46269 21.90619 36131 ft 467 kts 172°
2026-04-22 08:49 48.39849 21.92140 36131 ft 466 kts 165°
2026-04-22 08:50 48.33934 21.95959 36131 ft 463 kts 146°
2026-04-22 08:50 48.28896 22.01950 36136 ft 462 kts 138°
2026-04-22 08:51 48.23981 22.08169 36130 ft 462 kts 139°
2026-04-22 08:51 48.19091 22.14335 36121 ft 462 kts 139°
2026-04-22 08:52 48.14156 22.20530 36125 ft 463 kts 139°
2026-04-22 08:52 48.09215 22.26718 36134 ft 463 kts 139°
2026-04-22 08:53 48.04280 22.32896 36128 ft 463 kts 139°
2026-04-22 08:53 47.99333 22.39067 36130 ft 463 kts 139°
2026-04-22 08:54 47.94397 22.45220 36121 ft 463 kts 140°
2026-04-22 08:54 47.89470 22.51333 36120 ft 463 kts 140°
2026-04-22 08:55 47.84509 22.57464 36126 ft 463 kts 140°
2026-04-22 08:55 47.79553 22.63593 36137 ft 463 kts 140°
2026-04-22 08:56 47.74596 22.69722 36141 ft 463 kts 140°
2026-04-22 08:56 47.69630 22.75815 36145 ft 463 kts 140°
2026-04-22 08:57 47.64652 22.81892 36145 ft 463 kts 140°
2026-04-22 08:57 47.59675 22.87980 36138 ft 464 kts 140°
2026-04-22 08:58 47.54722 22.94037 36133 ft 464 kts 140°
2026-04-22 08:58 47.49731 23.00109 36127 ft 464 kts 140°
2026-04-22 08:59 47.44732 23.06161 36121 ft 465 kts 140°
2026-04-22 08:59 47.39730 23.12210 36119 ft 465 kts 140°
2026-04-22 09:00 47.34725 23.18263 36105 ft 465 kts 141°
2026-04-22 09:00 47.29713 23.24311 36103 ft 466 kts 141°
2026-04-22 09:01 47.24690 23.30346 36104 ft 466 kts 141°
2026-04-22 09:01 47.19698 23.36319 36108 ft 466 kts 141°
2026-04-22 09:02 47.14661 23.42335 36103 ft 466 kts 141°
2026-04-22 09:02 47.09623 23.48338 36104 ft 466 kts 141°
2026-04-22 09:03 47.04582 23.54335 36098 ft 466 kts 141°
2026-04-22 09:03 46.99535 23.60324 36106 ft 467 kts 141°
2026-04-22 09:04 46.95333 23.65293 36107 ft 467 kts 141°
2026-04-22 09:04 46.89446 23.72236 36111 ft 467 kts 141°
2026-04-22 09:05 46.84382 23.78205 36113 ft 467 kts 141°
2026-04-22 09:05 46.80163 23.83158 36115 ft 468 kts 141°
2026-04-22 09:06 46.75096 23.89109 36104 ft 468 kts 142°
2026-04-22 09:06 46.70022 23.95051 36099 ft 468 kts 142°
2026-04-22 09:07 46.64935 24.00980 36101 ft 468 kts 142°
2026-04-22 09:07 46.59835 24.06898 36104 ft 468 kts 142°
2026-04-22 09:08 46.54729 24.12804 36108 ft 469 kts 142°
2026-04-22 09:08 46.49622 24.18715 36110 ft 469 kts 142°
2026-04-22 09:08 46.47104 24.21627 36270 ft 470 kts 142°
2026-04-22 09:09 46.44542 24.24587 36475 ft 470 kts 142°
2026-04-22 09:09 46.41985 24.27542 36657 ft 470 kts 143°
2026-04-22 09:09 46.39423 24.30494 36836 ft 471 kts 143°
2026-04-22 09:09 46.36856 24.33443 37024 ft 471 kts 143°
2026-04-22 09:10 46.34287 24.36389 37079 ft 472 kts 143°
2026-04-22 09:10 46.29143 24.42282 37082 ft 471 kts 143°
2026-04-22 09:11 46.24004 24.48161 37088 ft 471 kts 143°
2026-04-22 09:11 46.18860 24.54036 37083 ft 471 kts 143°
2026-04-22 09:12 46.13740 24.59864 37082 ft 471 kts 143°
2026-04-22 09:12 46.08575 24.65715 37081 ft 472 kts 143°
2026-04-22 09:13 46.03409 24.71556 37087 ft 472 kts 143°
2026-04-22 09:13 45.98239 24.77391 37092 ft 472 kts 143°
2026-04-22 09:14 45.93073 24.83224 37098 ft 472 kts 143°
2026-04-22 09:14 45.87931 24.89014 37097 ft 472 kts 143°
2026-04-22 09:15 45.82747 24.94821 37086 ft 473 kts 144°
2026-04-22 09:15 45.77550 25.00620 37091 ft 473 kts 144°
2026-04-22 09:16 45.72362 25.06412 37090 ft 473 kts 144°
2026-04-22 09:16 45.67166 25.12199 37100 ft 473 kts 144°
2026-04-22 09:17 45.61962 25.17968 37101 ft 473 kts 144°
2026-04-22 09:17 45.56784 25.23703 37082 ft 473 kts 144°
2026-04-22 09:18 45.51578 25.29461 37083 ft 473 kts 144°
2026-04-22 09:18 45.46364 25.35202 37085 ft 474 kts 145°
2026-04-22 09:19 45.41133 25.40947 37090 ft 474 kts 144°
2026-04-22 09:19 45.35916 25.46677 37090 ft 474 kts 144°
2026-04-22 09:20 45.30701 25.52399 37090 ft 474 kts 144°
2026-04-22 09:20 45.25515 25.58069 37076 ft 474 kts 145°
2026-04-22 09:21 45.20282 25.63755 37080 ft 474 kts 145°
2026-04-22 09:21 45.15047 25.69441 37082 ft 474 kts 145°
2026-04-22 09:22 45.09807 25.75122 37088 ft 474 kts 145°
2026-04-22 09:22 45.04565 25.80796 37082 ft 474 kts 145°
2026-04-22 09:23 44.99319 25.86463 37066 ft 474 kts 146°
2026-04-22 09:23 44.94064 25.92115 37069 ft 475 kts 146°
2026-04-22 09:24 44.88802 25.97751 37076 ft 475 kts 146°
2026-04-22 09:24 44.83530 26.03396 37082 ft 475 kts 146°
2026-04-22 09:25 44.78301 26.08990 37085 ft 475 kts 146°
2026-04-22 09:25 44.73033 26.14614 37088 ft 475 kts 146°
2026-04-22 09:26 44.67764 26.20222 37075 ft 475 kts 146°
2026-04-22 09:26 44.62484 26.25831 37069 ft 476 kts 146°
2026-04-22 09:27 44.57199 26.31420 37079 ft 476 kts 146°
2026-04-22 09:27 44.51913 26.37006 37080 ft 476 kts 146°
2026-04-22 09:28 44.46622 26.42575 37070 ft 476 kts 146°
2026-04-22 09:28 44.41328 26.48136 37059 ft 475 kts 146°
2026-04-22 09:29 44.36039 26.53688 37069 ft 476 kts 146°
2026-04-22 09:29 44.30740 26.59229 37071 ft 476 kts 146°
2026-04-22 09:30 44.25478 26.64734 37071 ft 476 kts 147°
2026-04-22 09:30 44.20168 26.70264 37076 ft 476 kts 147°
2026-04-22 09:31 44.14861 26.75774 37074 ft 476 kts 147°
2026-04-22 09:31 44.09548 26.81272 37054 ft 476 kts 147°
2026-04-22 09:32 44.04216 26.86740 37059 ft 476 kts 148°
2026-04-22 09:32 43.98930 26.92053 37067 ft 476 kts 148°
2026-04-22 09:33 43.93508 26.97484 37071 ft 476 kts 148°
2026-04-22 09:33 43.88151 27.02863 37070 ft 475 kts 148°
2026-04-22 09:34 43.82768 27.08248 37051 ft 475 kts 148°
2026-04-22 09:34 43.77420 27.13589 37064 ft 476 kts 148°
2026-04-22 09:35 43.69377 27.21581 37072 ft 476 kts 148°
2026-04-22 09:35 43.64005 27.26918 37075 ft 476 kts 148°
2026-04-22 09:36 43.58636 27.32251 37076 ft 475 kts 148°
2026-04-22 09:36 43.53258 27.37569 37061 ft 475 kts 149°
2026-04-22 09:37 43.47870 27.42871 37069 ft 476 kts 149°
2026-04-22 09:37 43.42515 27.48128 37075 ft 476 kts 149°
2026-04-22 09:38 43.37109 27.53425 37087 ft 476 kts 149°
2026-04-22 09:38 43.31716 27.58718 37086 ft 475 kts 149°
2026-04-22 09:39 43.26332 27.64002 37087 ft 476 kts 149°
2026-04-22 09:39 43.20977 27.69243 37079 ft 475 kts 149°
2026-04-22 09:40 43.15586 27.74491 37090 ft 475 kts 149°
2026-04-22 09:40 43.10193 27.79729 37087 ft 475 kts 149°
2026-04-22 09:41 43.04792 27.84944 37072 ft 475 kts 150°
2026-04-22 09:41 42.99385 27.90155 37065 ft 475 kts 150°
2026-04-22 09:42 42.93986 27.95362 37079 ft 475 kts 150°
2026-04-22 09:42 42.88584 28.00565 37087 ft 475 kts 150°
2026-04-22 09:43 42.83179 28.05764 37084 ft 475 kts 150°
2026-04-22 09:43 42.77768 28.10938 37094 ft 475 kts 150°
2026-04-22 09:44 42.72361 28.16107 37071 ft 475 kts 150°
2026-04-22 09:44 42.66948 28.21284 37077 ft 476 kts 150°
2026-04-22 09:45 42.61558 28.26407 37078 ft 476 kts 151°
2026-04-22 09:45 42.56124 28.31554 37084 ft 476 kts 151°
2026-04-22 09:46 42.50701 28.36688 37062 ft 476 kts 151°
2026-04-22 09:46 42.45273 28.41833 37060 ft 476 kts 151°
2026-04-22 09:47 42.39843 28.46976 37081 ft 475 kts 152°
2026-04-22 09:47 42.34428 28.52081 37093 ft 474 kts 152°
2026-04-22 09:48 42.29043 28.57139 37095 ft 474 kts 152°
2026-04-22 09:48 42.23623 28.62214 37071 ft 474 kts 152°
2026-04-22 09:49 42.18204 28.67283 37074 ft 474 kts 152°
2026-04-22 09:49 42.12777 28.72330 37078 ft 472 kts 154°
2026-04-22 09:50 42.06934 28.75894 37083 ft 453 kts 173°
2026-04-22 09:50 42.00829 28.76900 37076 ft 437 kts 187°
2026-04-22 09:51 41.94785 28.77107 37058 ft 437 kts 186°
2026-04-22 09:51 41.88694 28.77358 37064 ft 438 kts 186°
2026-04-22 09:52 41.82595 28.77613 37068 ft 438 kts 186°
2026-04-22 09:52 41.76501 28.77852 37056 ft 438 kts 186°
2026-04-22 09:53 41.70406 28.78092 37052 ft 438 kts 186°
2026-04-22 09:53 41.64310 28.78323 37072 ft 438 kts 186°
2026-04-22 09:54 41.58218 28.78554 37065 ft 438 kts 186°
2026-04-22 09:54 41.53155 28.78749 37072 ft 438 kts 186°
2026-04-22 09:55 41.47059 28.78983 37064 ft 438 kts 186°
2026-04-22 09:55 41.39979 28.79264 37034 ft 438 kts 186°
2026-04-22 09:56 41.34867 28.79467 37031 ft 438 kts 186°
2026-04-22 09:56 41.28762 28.79711 37039 ft 439 kts 186°
2026-04-22 09:57 41.22696 28.79949 37046 ft 439 kts 186°
2026-04-22 09:57 41.16585 28.80194 37029 ft 439 kts 186°
2026-04-22 09:58 41.10463 28.80452 37040 ft 440 kts 186°
2026-04-22 09:58 41.04341 28.80715 37043 ft 440 kts 186°
2026-04-22 09:59 40.98212 28.81034 37054 ft 444 kts 181°
2026-04-22 09:59 40.92191 28.83212 37058 ft 460 kts 164°
2026-04-22 10:00 40.86263 28.86457 37052 ft 461 kts 165°
2026-04-22 10:00 40.80331 28.89690 37035 ft 461 kts 164°
2026-04-22 10:01 40.74405 28.92920 37035 ft 461 kts 164°
2026-04-22 10:01 40.68524 28.96118 37026 ft 460 kts 164°
2026-04-22 10:02 40.62595 28.99335 37031 ft 459 kts 164°
2026-04-22 10:02 40.56685 29.02528 37010 ft 459 kts 164°
2026-04-22 10:03 40.50769 29.05718 37010 ft 459 kts 164°
2026-04-22 10:03 40.44862 29.08897 37008 ft 459 kts 164°
2026-04-22 10:04 40.38986 29.12053 37010 ft 459 kts 164°
2026-04-22 10:04 40.33072 29.15239 36982 ft 459 kts 164°
2026-04-22 10:05 40.27159 29.18401 36979 ft 458 kts 164°
2026-04-22 10:05 40.21287 29.21536 36982 ft 458 kts 164°
2026-04-22 10:06 40.15383 29.24696 36982 ft 458 kts 164°
2026-04-22 10:06 40.09481 29.27834 36940 ft 458 kts 164°
2026-04-22 10:07 40.03575 29.30976 36942 ft 458 kts 164°
2026-04-22 10:07 39.97668 29.34116 36939 ft 458 kts 164°
2026-04-22 10:08 39.91757 29.37244 36937 ft 458 kts 164°
2026-04-22 10:08 39.85858 29.40416 36921 ft 459 kts 163°
2026-04-22 10:09 39.79971 29.43678 36920 ft 460 kts 163°
2026-04-22 10:09 39.74117 29.46918 36925 ft 460 kts 163°
2026-04-22 10:10 39.68225 29.50155 36890 ft 459 kts 163°
2026-04-22 10:10 39.62323 29.53364 36906 ft 460 kts 164°
2026-04-22 10:11 39.56371 29.56372 36913 ft 459 kts 165°
2026-04-22 10:11 39.50398 29.59279 36928 ft 459 kts 165°
2026-04-22 10:12 39.44427 29.62219 36904 ft 459 kts 165°
2026-04-22 10:12 39.38467 29.65187 36911 ft 459 kts 165°
2026-04-22 10:13 39.32494 29.68164 36920 ft 459 kts 165°
2026-04-22 10:13 39.26522 29.71125 36928 ft 459 kts 165°
2026-04-22 10:14 39.20589 29.74064 36916 ft 459 kts 165°
2026-04-22 10:14 39.14624 29.77022 36928 ft 459 kts 165°
2026-04-22 10:15 39.08656 29.79964 36935 ft 459 kts 165°
2026-04-22 10:15 39.02683 29.82896 36935 ft 459 kts 165°
2026-04-22 10:16 38.96716 29.85829 36924 ft 459 kts 165°
2026-04-22 10:16 38.90746 29.88748 36931 ft 459 kts 165°
2026-04-22 10:17 38.84762 29.91642 36937 ft 459 kts 165°
2026-04-22 10:17 38.78776 29.94477 36949 ft 459 kts 166°
2026-04-22 10:18 38.72828 29.97284 36949 ft 459 kts 166°
2026-04-22 10:18 38.66838 30.00115 36955 ft 459 kts 165°
2026-04-22 10:19 38.60849 30.02955 36962 ft 458 kts 165°
2026-04-22 10:19 38.54877 30.05785 36961 ft 458 kts 165°
2026-04-22 10:20 38.48904 30.08600 36943 ft 457 kts 166°
2026-04-22 10:20 38.42928 30.11413 36945 ft 458 kts 166°
2026-04-22 10:21 38.36948 30.14216 36951 ft 458 kts 166°
2026-04-22 10:21 38.30968 30.17016 36961 ft 458 kts 166°
2026-04-22 10:22 38.25018 30.19756 36960 ft 458 kts 166°
2026-04-22 10:22 38.19020 30.22491 36963 ft 458 kts 166°
2026-04-22 10:23 38.13020 30.25233 36976 ft 458 kts 166°
2026-04-22 10:23 38.07016 30.27988 36981 ft 458 kts 166°
2026-04-22 10:24 38.01061 30.30718 36980 ft 458 kts 166°
2026-04-22 10:24 37.95058 30.33448 37007 ft 458 kts 166°
2026-04-22 10:25 37.89047 30.36159 37011 ft 458 kts 166°
2026-04-22 10:25 37.83045 30.38865 37015 ft 458 kts 166°
2026-04-22 10:26 37.77028 30.41579 36997 ft 458 kts 166°
2026-04-22 10:26 37.71027 30.44294 37008 ft 458 kts 166°
2026-04-22 10:27 37.65057 30.46984 37014 ft 458 kts 167°
2026-04-22 10:27 37.59050 30.49670 37014 ft 458 kts 167°
2026-04-22 10:28 37.53038 30.52365 37017 ft 458 kts 166°
2026-04-22 10:28 37.47033 30.55057 37035 ft 458 kts 167°
2026-04-22 10:29 37.41023 30.57742 37039 ft 458 kts 167°
2026-04-22 10:29 37.35059 30.60401 37046 ft 457 kts 167°
2026-04-22 10:30 37.29059 30.63069 37042 ft 457 kts 166°
2026-04-22 10:30 37.23058 30.65741 37047 ft 457 kts 166°
2026-04-22 10:31 37.17066 30.68401 37044 ft 456 kts 166°
2026-04-22 10:31 37.11085 30.71045 37028 ft 456 kts 166°
2026-04-22 10:32 37.05104 30.73691 37016 ft 456 kts 166°
2026-04-22 10:32 36.99161 30.76311 37021 ft 456 kts 167°
2026-04-22 10:33 36.93140 30.78827 37018 ft 451 kts 173°
2026-04-22 10:33 36.87011 30.79630 36999 ft 440 kts 185°
2026-04-22 10:34 36.80877 30.79831 37009 ft 441 kts 185°
2026-04-22 10:34 36.74731 30.80036 37027 ft 442 kts 185°
2026-04-22 10:35 36.68612 30.80246 37032 ft 442 kts 185°
2026-04-22 10:35 36.62465 30.80463 37017 ft 442 kts 184°
2026-04-22 10:36 36.56306 30.80679 37021 ft 441 kts 184°
2026-04-22 10:36 36.50185 30.80890 37024 ft 441 kts 184°
2026-04-22 10:37 36.40989 30.81202 37027 ft 441 kts 184°
2026-04-22 10:38 36.34847 30.81410 37031 ft 441 kts 184°
2026-04-22 10:38 36.28703 30.81617 37032 ft 442 kts 184°
2026-04-22 10:39 36.22560 30.81823 37009 ft 442 kts 184°
2026-04-22 10:39 36.16400 30.82040 37018 ft 442 kts 184°
2026-04-22 10:40 36.10284 30.82245 37022 ft 442 kts 184°
2026-04-22 10:40 36.04132 30.82447 37024 ft 442 kts 184°
2026-04-22 10:41 35.97967 30.82748 37016 ft 443 kts 183°
2026-04-22 10:41 35.91802 30.83160 37023 ft 444 kts 182°
2026-04-22 10:42 35.85674 30.83568 37036 ft 444 kts 182°
2026-04-22 10:42 35.79469 30.83947 37018 ft 443 kts 183°
2026-04-22 10:43 35.73338 30.84300 37025 ft 443 kts 183°
2026-04-22 10:43 35.67196 30.85376 37026 ft 455 kts 165°
2026-04-22 10:43 35.64334 30.87121 37025 ft 464 kts 150°
2026-04-22 10:44 35.61855 30.89699 37023 ft 471 kts 135°
2026-04-22 10:44 35.59935 30.92987 37025 ft 477 kts 120°
2026-04-22 10:44 35.58690 30.96775 37017 ft 480 kts 108°
2026-04-22 10:45 35.56719 31.04629 37017 ft 482 kts 109°
2026-04-22 10:45 35.54732 31.12443 37023 ft 483 kts 109°
2026-04-22 10:46 35.52726 31.20316 37029 ft 484 kts 109°
2026-04-22 10:46 35.50707 31.28206 37029 ft 484 kts 109°
2026-04-22 10:47 35.48680 31.36087 37039 ft 484 kts 109°
2026-04-22 10:47 35.47664 31.40028 36873 ft 485 kts 109°
2026-04-22 10:47 35.46647 31.43970 36611 ft 484 kts 109°
2026-04-22 10:47 35.45632 31.47901 36354 ft 484 kts 109°
2026-04-22 10:48 35.44960 31.50504 36185 ft 484 kts 109°
2026-04-22 10:48 35.43944 31.54439 35924 ft 484 kts 109°
2026-04-22 10:48 35.42926 31.58380 35201 ft 487 kts 109°
2026-04-22 10:48 35.41896 31.62362 34213 ft 492 kts 109°
2026-04-22 10:49 35.40857 31.66373 33391 ft 491 kts 109°
2026-04-22 10:49 35.39829 31.70334 32789 ft 485 kts 109°
2026-04-22 10:49 35.38808 31.74255 32118 ft 481 kts 109°
2026-04-22 10:49 35.37812 31.78064 31477 ft 477 kts 109°
2026-04-22 10:50 35.36784 31.81992 30826 ft 473 kts 109°
2026-04-22 10:50 35.35782 31.85814 30192 ft 469 kts 109°
2026-04-22 10:50 35.34787 31.89604 29500 ft 465 kts 109°
2026-04-22 10:50 35.33814 31.93309 28904 ft 459 kts 109°
2026-04-22 10:51 35.32841 31.97013 28292 ft 455 kts 109°
2026-04-22 10:51 35.31877 32.00680 27707 ft 450 kts 109°
2026-04-22 10:51 35.30921 32.04310 27125 ft 446 kts 109°
2026-04-22 10:51 35.29975 32.07896 26618 ft 440 kts 109°
2026-04-22 10:52 35.29042 32.11443 26115 ft 435 kts 109°
2026-04-22 10:52 35.28128 32.14947 25625 ft 430 kts 108°
2026-04-22 10:52 35.27225 32.18421 25137 ft 426 kts 108°
2026-04-22 10:52 35.26329 32.21862 24664 ft 422 kts 108°
2026-04-22 10:53 35.25437 32.25271 24191 ft 419 kts 108°
2026-04-22 10:53 35.24551 32.28653 23703 ft 416 kts 108°
2026-04-22 10:53 35.23669 32.32013 23169 ft 413 kts 108°
2026-04-22 10:53 35.22803 32.35309 22682 ft 409 kts 108°
2026-04-22 10:54 35.21935 32.38602 22190 ft 405 kts 109°
2026-04-22 10:54 35.21071 32.41869 21697 ft 402 kts 109°
2026-04-22 10:54 35.20211 32.45117 21211 ft 399 kts 109°
2026-04-22 10:54 35.19359 32.48334 20710 ft 397 kts 108°
2026-04-22 10:55 35.18511 32.51536 20214 ft 395 kts 108°
2026-04-22 10:55 35.17668 32.54718 19718 ft 393 kts 108°
2026-04-22 10:55 35.16825 32.57885 19225 ft 391 kts 109°
2026-04-22 10:55 35.15984 32.61037 18730 ft 390 kts 108°
2026-04-22 10:56 35.15148 32.64183 18229 ft 388 kts 109°
2026-04-22 10:56 35.14319 32.67312 17720 ft 386 kts 109°
2026-04-22 10:56 35.13494 32.70421 17240 ft 382 kts 109°
2026-04-22 10:56 35.12673 32.73494 16772 ft 379 kts 109°
2026-04-22 10:57 35.11855 32.76547 16308 ft 377 kts 109°
2026-04-22 10:57 35.11052 32.79541 15851 ft 375 kts 109°
2026-04-22 10:57 35.10236 32.82577 15391 ft 373 kts 109°
2026-04-22 10:57 35.09428 32.85584 14925 ft 372 kts 108°
2026-04-22 10:58 35.08624 32.88571 14461 ft 370 kts 108°
2026-04-22 10:58 35.07821 32.91556 13997 ft 369 kts 109°
2026-04-22 10:58 35.07020 32.94525 13481 ft 368 kts 109°
2026-04-22 10:58 35.06194 32.97470 12990 ft 365 kts 109°
2026-04-22 10:59 35.05354 33.00381 12519 ft 361 kts 110°
2026-04-22 10:59 35.04515 33.03254 12048 ft 358 kts 110°
2026-04-22 10:59 35.03684 33.06105 11575 ft 355 kts 110°
2026-04-22 10:59 35.02865 33.08934 11109 ft 352 kts 110°
2026-04-22 11:00 35.02056 33.11738 10623 ft 349 kts 110°
2026-04-22 11:00 35.01255 33.14518 10205 ft 345 kts 110°
2026-04-22 11:00 35.00475 33.17223 10081 ft 331 kts 110°
2026-04-22 11:00 34.99726 33.19820 9957 ft 319 kts 110°
2026-04-22 11:01 34.99000 33.22328 9788 ft 308 kts 110°
2026-04-22 11:01 34.98302 33.24741 9333 ft 302 kts 110°
2026-04-22 11:01 34.97602 33.27160 8793 ft 303 kts 110°
2026-04-22 11:01 34.96906 33.29566 8422 ft 300 kts 110°
2026-04-22 11:02 34.96324 33.32007 8007 ft 298 kts 99°
2026-04-22 11:02 34.96211 33.34516 7613 ft 296 kts 89°
2026-04-22 11:02 34.96234 33.37034 6993 ft 301 kts 89°
2026-04-22 11:02 34.96256 33.39631 6332 ft 309 kts 89°
2026-04-22 11:03 34.96275 33.42169 6100 ft 286 kts 89°
2026-04-22 11:03 34.96281 33.42945 6058 ft 278 kts 89°